This is the latest recevied weather packets stored in our database for station/object XE2VP-WX. If no packets are shown the sender has not sent any weather packets the latest 1 day(s).
| Time | Temp. | Humidity | Pressure | Rain* | Wind** | Luminosity | Snow |
|---|---|---|---|---|---|---|---|
| 1778006998 | 33.89° C | 30% | 938.4 hPa | 0 mm | 1.79 m/s, 172° | 1039 W/m² | - |
| 1778006936 | 33.89° C | 31% | 938.5 hPa | 0 mm | 1.79 m/s, 132° | 1028 W/m² | - |
| 1778006875 | 33.89° C | 31% | 938.5 hPa | 0 mm | 1.79 m/s, 81° | 1020 W/m² | - |
| 1778006816 | 33.89° C | 31% | 938.4 hPa | 0 mm | 1.79 m/s, 91° | 1012 W/m² | - |
| 1778006756 | 33.89° C | 32% | 938.5 hPa | 0 mm | 1.79 m/s, 159° | 990 W/m² | - |
| 1778006692 | 33.89° C | 31% | 938.5 hPa | 0 mm | 1.34 m/s, 77° | 1001 W/m² | - |
| 1778006631 | 33.89° C | 31% | 938.5 hPa | 0 mm | 1.34 m/s, 68° | 1011 W/m² | - |
| 1778006572 | 33.89° C | 31% | 938.5 hPa | 0 mm | 1.34 m/s, 64° | 1017 W/m² | - |
| 1778006511 | 33.89° C | 31% | 938.5 hPa | 0 mm | 1.34 m/s, 24° | 998 W/m² | - |
| 1778006451 | 33.89° C | 32% | 938.5 hPa | 0 mm | 0.89 m/s, 36° | 1018 W/m² | - |
| 1778006392 | 33.89° C | 31% | 938.6 hPa | 0 mm | 0.89 m/s, 355° | 1025 W/m² | - |
| 1778006331 | 33.89° C | 31% | 938.6 hPa | 0 mm | 0.89 m/s, 345° | 1021 W/m² | - |
| 1778006272 | 33.33° C | 31% | 938.6 hPa | 0 mm | 0.89 m/s, 331° | 1025 W/m² | - |
| 1778006211 | 33.33° C | 32% | 938.6 hPa | 0 mm | 0.89 m/s, 19° | 1024 W/m² | - |
| 1778006152 | 33.33° C | 32% | 938.6 hPa | 0 mm | 0.89 m/s, 7° | 1028 W/m² | - |
| 1778006092 | 33.33° C | 31% | 938.6 hPa | 0 mm | 0.89 m/s, 146° | 1018 W/m² | - |
| 1778006032 | 33.33° C | 33% | 938.7 hPa | 0 mm | 0.89 m/s, 0° | 1016 W/m² | - |
| 1778005970 | 32.78° C | 34% | 938.7 hPa | 0 mm | 1.34 m/s, 151° | 1015 W/m² | - |
| 1778005910 | 32.78° C | 33% | 938.7 hPa | 0 mm | 1.34 m/s, 230° | 1013 W/m² | - |
| 1778005850 | 32.78° C | 33% | 938.7 hPa | 0 mm | 1.34 m/s, 43° | 1021 W/m² | - |
| 1778005790 | 32.78° C | 34% | 938.7 hPa | 0 mm | 1.34 m/s, 114° | 1015 W/m² | - |
| 1778005730 | 32.78° C | 34% | 938.7 hPa | 0 mm | 1.34 m/s, 25° | 1007 W/m² | - |
| 1778005669 | 32.78° C | 34% | 938.7 hPa | 0 mm | 1.34 m/s, 39° | 956 W/m² | - |
| 1778005606 | 32.78° C | 35% | 938.7 hPa | 0 mm | 1.34 m/s, 119° | 839 W/m² | - |
| 1778005545 | 32.78° C | 34% | 938.7 hPa | 0 mm | 1.79 m/s, 171° | 863 W/m² | - |
* Rain latest hour (hover to see other rain measurements)
** Current wind speed in m/s (hover to see current wind gust speed)